Location: Atherton
(17.2661°S, 145.4859°E)
Time: 00:12:10
(UTC+10:00)

Vanguard 1 - Pass Details

Date: 03 July 2025
Orbit: 649 x 3822 km, 34.2° (Epoch: 17 July)

Event Time Altitude Azimuth Distance (km) Brightness Sun altitude
Rises 16:15:08 0° 298° (WNW) 7,740 16.2 20.4°
Reaches altitude 10° 16:20:13 10° 297° (WNW) 6,855 16.7 19.3°
Maximum altitude 16:44:06 77° 212° (SSW) 3,498 13.1 14.5°
Drops below altitude 10° 17:00:54 10° 124° (SE) 5,085 13.1 11.0°
Sets 17:04:03 0° 122° (ESE) 5,753 13.3 10.3°
